Location: Township of Marena
(38.1747°N, 99.6798°W)
Time: 03:18:15
(UTC+00:00)

Cosmos 968 Rocket - Pass Details

Date: 26 October 2020
Orbit: 741 x 770 km, 74.0° (Epoch: 24 November)

Event Time Altitude Azimuth Distance (km) Brightness Sun altitude
Rises 02:00:04 0° 338° (NNW) 3,233 7.1 -26.8°
Reaches altitude 10° 02:02:29 10° 335° (NNW) 2,299 6.3 -27.3°
Maximum altitude 02:07:38 64° 255° (WSW) 836 3.8 -28.3°
Enters shadow 02:08:21 57° 214° (SSW) 889 3.8 -28.4°
